| time (UTC) | temp F | wind direction | speed knots | gust knots | rain 1hr in | rain 24hr in | rain mn in | humidity % | barometer mb |
| 20260505122535 | 70 | 256 | 3.5 | 10.4 | 0.00 | 0.00 | 0.00 | 85 | 1008.7 |
| 20260505122032 | 70 | 231 | 5.2 | 11.3 | 0.00 | 0.00 | 0.00 | 85 | 1008.5 |
| 20260505121528 | 70 | 196 | 3.5 | 11.3 | 0.00 | 0.00 | 0.00 | 85 | 1008.4 |
| 20260505121025 | 69 | 193 | 5.2 | 5.2 | 0.00 | 0.00 | 0.00 | 85 | 1008.4 |
| 20260505120522 | 69 | 179 | 4.3 | 7.8 | 0.00 | 0.00 | 0.00 | 85 | 1008.6 |
| 20260505120017 | 69 | 161 | 5.2 | 9.6 | 0.00 | 0.00 | 0.00 | 85 | 1008.5 |
| 20260505115512 | 69 | 198 | 0.9 | 8.7 | 0.00 | 0.00 | 0.00 | 85 | 1008.6 |
| 20260505115010 | 69 | 242 | 5.2 | 7.0 | 0.00 | 0.00 | 0.00 | 86 | 1008.5 |
| 20260505114507 | 69 | 194 | 4.3 | 7.0 | 0.00 | 0.00 | 0.00 | 86 | 1008.5 |
| 20260505114003 | 69 | 182 | 3.5 | 7.8 | 0.00 | 0.00 | 0.00 | 86 | 1008.4 |
| 20260505113500 | 69 | 150 | 4.3 | 5.2 | 0.00 | 0.00 | 0.00 | 86 | 1008.5 |
| 20260505112955 | 68 | 225 | 2.6 | 5.2 | 0.00 | 0.00 | 0.00 | 86 | 1008.4 |
| 20260505112453 | 68 | 135 | 1.7 | 7.0 | 0.00 | 0.00 | 0.00 | 86 | 1008.4 |
| 20260505111950 | 68 | 237 | 1.7 | 7.0 | 0.00 | 0.00 | 0.00 | 86 | 1008.3 |
| 20260505111450 | 68 | 178 | 4.3 | 11.3 | 0.00 | 0.00 | 0.00 | 86 | 1008.3 |
| 20260505110946 | 68 | 212 | 5.2 | 11.3 | 0.00 | 0.00 | 0.00 | 86 | 1008.4 |
| 20260505110443 | 68 | 155 | 6.1 | 7.8 | 0.00 | 0.00 | 0.00 | 86 | 1008.1 |
| 20260505101914 | 68 | 209 | 12.2 | 13.0 | 0.00 | 0.00 | 0.00 | 85 | 1008.3 |
| 20260505101408 | 68 | 124 | 5.2 | 7.0 | 0.00 | 0.00 | 0.00 | 85 | 1008.2 |
| 20260505100905 | 68 | 144 | 3.5 | 12.2 | 0.00 | 0.00 | 0.00 | 85 | 1008.2 |
| 20260505100401 | 68 | 228 | 7.0 | 13.0 | 0.00 | 0.00 | 0.00 | 85 | 1008.1 |
| 20260505095857 | 68 | 209 | 2.6 | 12.2 | 0.00 | 0.00 | 0.00 | 85 | 1008.2 |
| 20260505095355 | 68 | 160 | 5.2 | 11.3 | 0.00 | 0.00 | 0.00 | 84 | 1008.3 |
| 20260505094850 | 68 | 201 | 5.2 | 13.0 | 0.00 | 0.00 | 0.00 | 84 | 1008.4 |
| 20260505094347 | 68 | 200 | 0.9 | 9.6 | 0.00 | 0.00 | 0.00 | 84 | 1008.3 |
| 20260505093843 | 68 | 174 | 5.2 | 9.6 | 0.00 | 0.00 | 0.00 | 84 | 1008.2 |
| 20260505093341 | 68 | 216 | 4.3 | 8.7 | 0.00 | 0.00 | 0.00 | 84 | 1008.2 |
| 20260505092838 | 68 | 203 | 3.5 | 9.6 | 0.00 | 0.00 | 0.00 | 84 | 1008.4 |
| 20260505092336 | 68 | 222 | 3.5 | 11.3 | 0.00 | 0.00 | 0.00 | 84 | 1008.5 |
| 20260505091833 | 68 | 225 | 7.8 | 11.3 | 0.00 | 0.00 | 0.00 | 84 | 1008.6 |
| 20260505091331 | 68 | 166 | 3.5 | 11.3 | 0.00 | 0.00 | 0.00 | 84 | 1008.7 |
| 20260505090829 | 68 | 163 | 4.3 | 7.0 | 0.00 | 0.00 | 0.00 | 83 | 1008.7 |
| 20260505090327 | 68 | 166 | 4.3 | 7.8 | 0.00 | 0.00 | 0.00 | 83 | 1008.7 |
| 20260505085824 | 68 | 178 | 3.5 | 9.6 | 0.00 | 0.00 | 0.00 | 83 | 1008.9 |
| 20260505085322 | 68 | 138 | 3.5 | 12.2 | 0.00 | 0.00 | 0.00 | 82 | 1008.9 |
| 20260505084819 | 68 | 213 | 2.6 | 7.8 | 0.00 | 0.00 | 0.00 | 82 | 1008.9 |
| 20260505084317 | 68 | 173 | 3.5 | 12.2 | 0.00 | 0.00 | 0.00 | 82 | 1008.9 |
| 20260505083814 | 68 | 242 | 3.5 | 7.8 | 0.00 | 0.00 | 0.00 | 82 | 1008.7 |
| 20260505083311 | 68 | 202 | 6.1 | 14.8 | 0.00 | 0.00 | 0.00 | 82 | 1009.0 |
| 20260505082808 | 68 | 180 | 2.6 | 10.4 | 0.00 | 0.00 | 0.00 | 82 | 1009.0 |
| 20260505082305 | 68 | 155 | 5.2 | 10.4 | 0.00 | 0.00 | 0.00 | 82 | 1009.1 |
| 20260505081801 | 68 | 209 | 4.3 | 9.6 | 0.00 | 0.00 | 0.00 | 82 | 1009.1 |
| 20260505081257 | 68 | 134 | 5.2 | 7.0 | 0.00 | 0.00 | 0.00 | 82 | 1009.1 |
| 20260505080754 | 68 | 151 | 2.6 | 9.6 | 0.00 | 0.00 | 0.00 | 82 | 1009.1 |
| 20260505080250 | 68 | 158 | 5.2 | 7.0 | 0.00 | 0.00 | 0.00 | 82 | 1009.2 |
| 20260505075746 | 68 | 246 | 3.5 | 7.0 | 0.00 | 0.00 | 0.00 | 81 | 1009.1 |
| 20260505075243 | 68 | 207 | 4.3 | 7.8 | 0.00 | 0.00 | 0.00 | 81 | 1009.2 |
| 20260505074740 | 68 | 247 | 3.5 | 7.8 | 0.00 | 0.00 | 0.00 | 81 | 1009.2 |
| 20260505074238 | 68 | 225 | 8.7 | 9.6 | 0.00 | 0.00 | 0.00 | 81 | 1009.0 |
| 20260505073735 | 68 | 172 | 4.3 | 9.6 | 0.00 | 0.00 | 0.00 | 81 | 1009.2 |
| 20260505073233 | 68 | 147 | 9.6 | 11.3 | 0.00 | 0.00 | 0.00 | 80 | 1009.4 |
| 20260505072729 | 68 | 162 | 1.7 | 7.8 | 0.00 | 0.00 | 0.00 | 80 | 1009.5 |
| 20260505072225 | 68 | 142 | 5.2 | 9.6 | 0.00 | 0.00 | 0.00 | 80 | 1009.4 |
| 20260505071721 | 68 | 129 | 7.8 | 9.6 | 0.00 | 0.00 | 0.00 | 80 | 1009.5 |
| 20260505071218 | 68 | 142 | 7.0 | 9.6 | 0.00 | 0.00 | 0.00 | 80 | 1009.3 |
| 20260505070716 | 68 | 167 | 1.7 | 7.0 | 0.00 | 0.00 | 0.00 | 80 | 1009.6 |
| 20260505070212 | 68 | 129 | 3.5 | 7.8 | 0.00 | 0.00 | 0.00 | 79 | 1009.6 |
| 20260505065708 | 68 | 153 | 4.3 | 6.1 | 0.00 | 0.00 | 0.00 | 79 | 1009.7 |
| 20260505065205 | 69 | 137 | 3.5 | 11.3 | 0.00 | 0.00 | 0.00 | 79 | 1009.8 |
| 20260505064702 | 69 | 132 | 1.7 | 7.8 | 0.00 | 0.00 | 0.00 | 78 | 1009.8 |
| 20260505064200 | 69 | 170 | 2.6 | 8.7 | 0.00 | 0.00 | 0.00 | 78 | 1009.7 |
| 20260505063657 | 69 | 180 | 5.2 | 7.8 | 0.00 | 0.00 | 0.00 | 78 | 1009.8 |
| 20260505063153 | 69 | 142 | 5.2 | 8.7 | 0.00 | 0.00 | 0.00 | 77 | 1009.9 |
| 20260505062649 | 69 | 160 | 2.6 | 7.0 | 0.00 | 0.00 | 0.00 | 77 | 1010.0 |
| 20260505062147 | 69 | 170 | 4.3 | 6.1 | 0.00 | 0.00 | 0.00 | 77 | 1009.9 |
| 20260505061644 | 69 | 193 | 3.5 | 10.4 | 0.00 | 0.00 | 0.00 | 76 | 1009.9 |
| 20260505061142 | 69 | 205 | 3.5 | 7.8 | 0.00 | 0.00 | 0.00 | 76 | 1010.1 |
| 20260505060639 | 69 | 153 | 4.3 | 4.3 | 0.00 | 0.00 | 0.00 | 76 | 1010.1 |
| 20260505060136 | 69 | 199 | 1.7 | 7.0 | 0.00 | 0.00 | 0.00 | 76 | 1010.3 |
| 20260505055631 | 69 | 208 | 7.0 | 9.6 | 0.00 | 0.00 | 0.00 | 76 | 1010.3 |
| 20260505055128 | 69 | 165 | 4.3 | 7.0 | 0.00 | 0.00 | 0.00 | 76 | 1010.2 |
| 20260505054625 | 69 | 185 | 3.5 | 7.8 | 0.00 | 0.00 | 0.00 | 75 | 1010.2 |
| 20260505054123 | 69 | 139 | 5.2 | 8.7 | 0.00 | 0.00 | 0.00 | 75 | 1010.3 |
| 20260505053620 | 69 | 179 | 3.5 | 8.7 | 0.00 | 0.00 | 0.00 | 75 | 1010.4 |
| 20260505053117 | 70 | 122 | 5.2 | 7.8 | 0.00 | 0.00 | 0.00 | 75 | 1010.1 |
| 20260505052614 | 70 | 150 | 3.5 | 8.7 | 0.00 | 0.00 | 0.00 | 74 | 1010.2 |
| 20260505052111 | 70 | 202 | 6.1 | 10.4 | 0.00 | 0.00 | 0.00 | 74 | 1010.2 |
| 20260505051608 | 70 | 224 | 5.2 | 9.6 | 0.00 | 0.00 | 0.00 | 74 | 1010.0 |
| 20260505051106 | 70 | 189 | 7.8 | 10.4 | 0.00 | 0.00 | 0.00 | 74 | 1010.0 |
| 20260505050604 | 70 | 169 | 7.0 | 11.3 | 0.00 | 0.00 | 0.00 | 74 | 1010.0 |
| 20260505041531 | 71 | 174 | 2.6 | 10.4 | 0.00 | 0.00 | 0.00 | 71 | 1010.4 |
| 20260505041029 | 71 | 185 | 3.5 | 6.1 | 0.00 | 0.00 | 0.00 | 70 | 1010.3 |
| 20260505040526 | 71 | 188 | 5.2 | 8.7 | 0.00 | 0.00 | 0.00 | 70 | 1010.3 |
| 20260505040023 | 71 | 158 | 7.8 | 8.7 | 0.00 | 0.00 | 0.00 | 70 | 1010.4 |
| 20260505035519 | 71 | 211 | 2.6 | 7.8 | 0.00 | 0.00 | 0.00 | 70 | 1010.3 |
| 20260505035016 | 71 | 185 | 3.5 | 10.4 | 0.00 | 0.00 | 0.00 | 69 | 1010.4 |
| 20260505034512 | 71 | 201 | 1.7 | 10.4 | 0.00 | 0.00 | 0.00 | 69 | 1010.4 |
| 20260505034010 | 71 | 167 | 3.5 | 10.4 | 0.00 | 0.00 | 0.00 | 68 | 1010.4 |
| 20260505033507 | 71 | 148 | 3.5 | 7.8 | 0.00 | 0.00 | 0.00 | 68 | 1010.3 |
| 20260505033005 | 71 | 196 | 3.5 | 9.6 | 0.00 | 0.00 | 0.00 | 68 | 1010.3 |
| 20260505032502 | 71 | 158 | 4.3 | 7.0 | 0.00 | 0.00 | 0.00 | 67 | 1010.3 |
| 20260505031958 | 71 | 186 | 2.6 | 8.7 | 0.00 | 0.00 | 0.00 | 67 | 1010.6 |
| 20260505031455 | 71 | 155 | 6.1 | 7.8 | 0.00 | 0.00 | 0.00 | 67 | 1010.5 |
| 20260505030952 | 71 | 196 | 7.0 | 7.8 | 0.00 | 0.00 | 0.00 | 66 | 1010.5 |
| 20260505030448 | 72 | 145 | 3.5 | 7.8 | 0.00 | 0.00 | 0.00 | 66 | 1010.3 |
| 20260505025943 | 72 | 173 | 2.6 | 5.2 | 0.00 | 0.00 | 0.00 | 66 | 1010.5 |
| 20260505025441 | 72 | 195 | 1.7 | 7.0 | 0.00 | 0.00 | 0.00 | 65 | 1010.3 |
| 20260505024939 | 72 | 187 | 2.6 | 4.3 | 0.00 | 0.00 | 0.00 | 65 | 1010.3 |
| 20260505024437 | 72 | 125 | 2.6 | 5.2 | 0.00 | 0.00 | 0.00 | 65 | 1010.3 |
| 20260505023933 | 72 | 171 | 3.5 | 4.3 | 0.00 | 0.00 | 0.00 | 64 | 1010.3 |
| 20260505023430 | 72 | 151 | 0.0 | 5.2 | 0.00 | 0.00 | 0.00 | 64 | 1010.2 |
| 20260505022928 | 72 | 129 | 4.3 | 4.3 | 0.00 | 0.00 | 0.00 | 63 | 1010.1 |
| 20260505022426 | 73 | 145 | 1.7 | 5.2 | 0.00 | 0.00 | 0.00 | 63 | 1010.2 |
| 20260505021922 | 73 | 111 | 1.7 | 4.3 | 0.00 | 0.00 | 0.00 | 63 | 1010.3 |
| 20260505021418 | 73 | 182 | 1.7 | 6.1 | 0.00 | 0.00 | 0.00 | 62 | 1010.1 |
| 20260505020914 | 73 | 219 | 3.5 | 6.1 | 0.00 | 0.00 | 0.00 | 62 | 1009.8 |
| 20260505020410 | 73 | 124 | 5.2 | 6.1 | 0.00 | 0.00 | 0.00 | 61 | 1010.1 |
| 20260505015907 | 73 | 134 | 5.2 | 9.6 | 0.00 | 0.00 | 0.00 | 61 | 1010.0 |
| 20260505015404 | 73 | 199 | 2.6 | 4.3 | 0.00 | 0.00 | 0.00 | 61 | 1009.8 |
| 20260505014901 | 73 | 156 | 3.5 | 5.2 | 0.00 | 0.00 | 0.00 | 60 | 1009.7 |
| 20260505014358 | 73 | 186 | 4.3 | 5.2 | 0.00 | 0.00 | 0.00 | 60 | 1009.8 |
| 20260505013855 | 73 | 182 | 4.3 | 5.2 | 0.00 | 0.00 | 0.00 | 59 | 1009.9 |
| 20260505013352 | 73 | 167 | 3.5 | 5.2 | 0.00 | 0.00 | 0.00 | 59 | 1009.7 |
| 20260505012851 | 74 | 143 | 1.7 | 4.3 | 0.00 | 0.00 | 0.00 | 58 | 1009.7 |
| 20260505012348 | 74 | 180 | 2.6 | 7.0 | 0.00 | 0.00 | 0.00 | 57 | 1009.6 |
| 20260505011844 | 74 | 151 | 1.7 | 6.1 | 0.00 | 0.00 | 0.00 | 57 | 1009.7 |
| 20260505011341 | 74 | 151 | 2.6 | 3.5 | 0.00 | 0.00 | 0.00 | 56 | 1009.7 |
| 20260505010837 | 75 | 180 | 3.5 | 4.3 | 0.00 | 0.00 | 0.00 | 55 | 1009.6 |
| 20260505010333 | 75 | 128 | 4.3 | 5.2 | 0.00 | 0.00 | 0.00 | 55 | 1009.4 |
| 20260505005829 | 75 | 179 | 1.7 | 5.2 | 0.00 | 0.00 | 0.00 | 53 | 1009.5 |
| 20260505005326 | 75 | 169 | 2.6 | 4.3 | 0.00 | 0.00 | 0.00 | 53 | 1009.7 |
| 20260505004824 | 76 | 130 | 3.5 | 3.5 | 0.00 | 0.00 | 0.00 | 52 | 1009.7 |
| 20260505004320 | 76 | 188 | 3.5 | 4.3 | 0.00 | 0.00 | 0.00 | 52 | 1009.6 |
| 20260505003817 | 76 | 179 | 2.6 | 5.2 | 0.00 | 0.00 | 0.00 | 51 | 1009.6 |
| 20260505003314 | 76 | 168 | 1.7 | 4.3 | 0.00 | 0.00 | 0.00 | 50 | 1009.7 |
| 20260505002810 | 77 | 196 | 1.7 | 7.0 | 0.00 | 0.00 | 0.00 | 49 | 1009.8 |
| 20260505002308 | 77 | 157 | 2.6 | 5.2 | 0.00 | 0.00 | 0.00 | 48 | 1009.8 |
| 20260505001806 | 77 | 176 | 5.2 | 7.0 | 0.00 | 0.00 | 0.00 | 47 | 1010.1 |
| 20260505001303 | 78 | 187 | 4.3 | 6.1 | 0.00 | 0.00 | 0.00 | 47 | 1010.2 |
| 20260505000800 | 78 | 239 | 5.2 | 5.2 | 0.00 | 0.00 | 0.00 | 46 | 1010.1 |
| 20260505000258 | 78 | 145 | 6.1 | 7.0 | 0.00 | 0.00 | 0.00 | 45 | 1010.0 |
| 20260504235754 | 79 | 133 | 3.5 | 7.0 | 0.00 | 0.00 | 0.00 | 44 | 1010.2 |
| 20260504235250 | 80 | 133 | 3.5 | 7.8 | 0.00 | 0.00 | 0.00 | 43 | 1010.3 |
| 20260504234748 | 80 | 159 | 1.7 | 8.7 | 0.00 | 0.00 | 0.00 | 42 | 1010.4 |
| 20260504234245 | 79 | 154 | 0.9 | 8.7 | 0.00 | 0.00 | 0.00 | 43 | 1010.3 |
| 20260504233741 | 79 | 223 | 4.3 | 9.6 | 0.00 | 0.00 | 0.00 | 42 | 1010.2 |
| 20260504233237 | 80 | 226 | 9.6 | 11.3 | 0.00 | 0.00 | 0.00 | 42 | 1010.3 |
| 20260504232734 | 80 | 156 | 6.1 | 11.3 | 0.00 | 0.00 | 0.00 | 41 | 1010.5 |
| 20260504232231 | 80 | 183 | 6.1 | 8.7 | 0.00 | 0.00 | 0.00 | 41 | 1010.6 |
| 20260504231728 | 81 | 202 | 5.2 | 9.6 | 0.00 | 0.00 | 0.00 | 40 | 1010.7 |
| 20260504231224 | 81 | 232 | 2.6 | 14.8 | 0.00 | 0.00 | 0.00 | 40 | 1010.6 |
| 20260504230720 | 81 | 147 | 6.1 | 9.6 | 0.00 | 0.00 | 0.00 | 41 | 1010.6 |
| 20260504230219 | 81 | 157 | 5.2 | 12.2 | 0.00 | 0.00 | 0.00 | 41 | 1010.8 |
| 20260504225717 | 81 | 153 | 3.5 | 9.6 | 0.00 | 0.00 | 0.00 | 41 | 1010.9 |
| 20260504225213 | 80 | 206 | 5.2 | 13.0 | 0.00 | 0.00 | 0.00 | 41 | 1010.9 |
| 20260504224711 | 80 | 175 | 4.3 | 11.3 | 0.00 | 0.00 | 0.00 | 41 | 1011.0 |
| 20260504224208 | 81 | 169 | 5.2 | 13.0 | 0.00 | 0.00 | 0.00 | 41 | 1011.1 |
| 20260504223704 | 82 | 239 | 6.1 | 10.4 | 0.00 | 0.00 | 0.00 | 40 | 1011.1 |
| 20260504223200 | 81 | 179 | 2.6 | 10.4 | 0.00 | 0.00 | 0.00 | 41 | 1011.1 |
| 20260504222657 | 82 | 172 | 5.2 | 11.3 | 0.00 | 0.00 | 0.00 | 40 | 1011.1 |
| 20260504222153 | 81 | 216 | 5.2 | 7.8 | 0.00 | 0.00 | 0.00 | 41 | 1011.4 |
| 20260504221651 | 81 | 151 | 7.8 | 9.6 | 0.00 | 0.00 | 0.00 | 40 | 1011.2 |
| 20260504221148 | 81 | 223 | 4.3 | 10.4 | 0.00 | 0.00 | 0.00 | 41 | 1011.4 |
| 20260504220644 | 82 | 144 | 7.0 | 7.8 | 0.00 | 0.00 | 0.00 | 40 | 1011.2 |
| 20260504220142 | 81 | 163 | 5.2 | 11.3 | 0.00 | 0.00 | 0.00 | 41 | 1011.6 |
| 20260504215638 | 82 | 185 | 3.5 | 7.8 | 0.00 | 0.00 | 0.00 | 41 | 1011.5 |
| 20260504215136 | 82 | 224 | 6.1 | 13.0 | 0.00 | 0.00 | 0.00 | 41 | 1011.5 |
| 20260504214631 | 81 | 200 | 0.9 | 7.8 | 0.00 | 0.00 | 0.00 | 41 | 1011.6 |
| 20260504214128 | 81 | 184 | 3.5 | 11.3 | 0.00 | 0.00 | 0.00 | 41 | 1011.7 |
| 20260504213625 | 81 | 220 | 3.5 | 7.8 | 0.00 | 0.00 | 0.00 | 41 | 1011.7 |
| 20260504213121 | 81 | 221 | 8.7 | 11.3 | 0.00 | 0.00 | 0.00 | 41 | 1011.8 |
| 20260504212618 | 81 | 209 | 5.2 | 9.6 | 0.00 | 0.00 | 0.00 | 42 | 1012.1 |
| 20260504212115 | 81 | 184 | 4.3 | 7.8 | 0.00 | 0.00 | 0.00 | 43 | 1012.0 |
| 20260504211612 | 80 | 138 | 8.7 | 13.0 | 0.00 | 0.00 | 0.00 | 43 | 1012.2 |
| 20260504211109 | 81 | 164 | 7.0 | 17.4 | 0.00 | 0.00 | 0.00 | 42 | 1012.3 |
| 20260504210606 | 81 | 223 | 7.8 | 9.6 | 0.00 | 0.00 | 0.00 | 41 | 1012.4 |
| 20260504205601 | 81 | 180 | 2.6 | 9.6 | 0.00 | 0.00 | 0.00 | 42 | 1012.5 |
| 20260504205058 | 80 | 245 | 1.7 | 10.4 | 0.00 | 0.00 | 0.00 | 43 | 1012.6 |
| 20260504204555 | 81 | 126 | 6.1 | 9.6 | 0.00 | 0.00 | 0.00 | 42 | 1012.7 |
| 20260504204055 | 81 | 161 | 6.1 | 8.7 | 0.00 | 0.00 | 0.00 | 42 | 1012.6 |
| 20260504203552 | 80 | 216 | 4.3 | 7.8 | 0.00 | 0.00 | 0.00 | 43 | 1013.0 |
| 20260504203050 | 81 | 226 | 2.6 | 11.3 | 0.00 | 0.00 | 0.00 | 42 | 1013.1 |
| 20260504202545 | 81 | 165 | 3.5 | 9.6 | 0.00 | 0.00 | 0.00 | 43 | 1013.1 |
| 20260504202042 | 81 | 157 | 6.1 | 9.6 | 0.00 | 0.00 | 0.00 | 42 | 1013.2 |
| 20260504201539 | 80 | 188 | 3.5 | 10.4 | 0.00 | 0.00 | 0.00 | 42 | 1013.5 |
| 20260504201037 | 80 | 162 | 3.5 | 11.3 | 0.00 | 0.00 | 0.00 | 42 | 1013.5 |
| 20260504200533 | 80 | 174 | 5.2 | 7.0 | 0.00 | 0.00 | 0.00 | 42 | 1013.6 |
| 20260504200030 | 80 | 193 | 4.3 | 9.6 | 0.00 | 0.00 | 0.00 | 42 | 1013.9 |
| 20260504195526 | 79 | 147 | 4.3 | 10.4 | 0.00 | 0.00 | 0.00 | 42 | 1013.7 |
| 20260504195023 | 80 | 203 | 7.0 | 13.9 | 0.00 | 0.00 | 0.00 | 42 | 1013.8 |
| 20260504194519 | 80 | 202 | 3.5 | 13.0 | 0.00 | 0.00 | 0.00 | 41 | 1013.8 |
| 20260504194014 | 80 | 163 | 5.2 | 13.0 | 0.00 | 0.00 | 0.00 | 42 | 1014.0 |
| 20260504193511 | 80 | 160 | 5.2 | 8.7 | 0.00 | 0.00 | 0.00 | 41 | 1014.2 |
| 20260504193010 | 80 | 227 | 7.8 | 13.0 | 0.00 | 0.00 | 0.00 | 40 | 1014.2 |
| 20260504192508 | 80 | 250 | 6.1 | 12.2 | 0.00 | 0.00 | 0.00 | 41 | 1014.4 |
| 20260504192006 | 81 | 238 | 4.3 | 13.9 | 0.00 | 0.00 | 0.00 | 40 | 1014.3 |
| 20260504191503 | 80 | 127 | 4.3 | 7.8 | 0.00 | 0.00 | 0.00 | 42 | 1014.3 |
| 20260504190959 | 79 | 243 | 4.3 | 7.8 | 0.00 | 0.00 | 0.00 | 43 | 1014.3 |
| 20260504190455 | 79 | 222 | 8.7 | 13.0 | 0.00 | 0.00 | 0.00 | 43 | 1014.3 |
| 20260504185952 | 80 | 195 | 5.2 | 8.7 | 0.00 | 0.00 | 0.00 | 42 | 1014.4 |
| 20260504185449 | 80 | 191 | 3.5 | 5.2 | 0.00 | 0.00 | 0.00 | 40 | 1014.6 |
| 20260504184945 | 79 | 151 | 2.6 | 5.2 | 0.00 | 0.00 | 0.00 | 42 | 1014.7 |
| 20260504184441 | 78 | 160 | 7.0 | 10.4 | 0.00 | 0.00 | 0.00 | 43 | 1014.7 |
| 20260504183936 | 78 | 157 | 4.3 | 13.0 | 0.00 | 0.00 | 0.00 | 44 | 1014.9 |
| 20260504183434 | 78 | 282 | 5.2 | 12.2 | 0.00 | 0.00 | 0.00 | 43 | 1014.9 |
| 20260504182932 | 78 | 259 | 5.2 | 10.4 | 0.00 | 0.00 | 0.00 | 44 | 1015.0 |
| 20260504182429 | 78 | 186 | 2.6 | 11.3 | 0.00 | 0.00 | 0.00 | 43 | 1015.4 |
| 20260504181926 | 78 | 181 | 1.7 | 7.8 | 0.00 | 0.00 | 0.00 | 44 | 1015.1 |
| 20260504181423 | 77 | 159 | 5.2 | 11.3 | 0.00 | 0.00 | 0.00 | 44 | 1015.0 |
| 20260504180922 | 77 | 243 | 6.1 | 13.0 | 0.00 | 0.00 | 0.00 | 44 | 1015.4 |
| 20260504180420 | 76 | 186 | 8.7 | 16.5 | 0.00 | 0.00 | 0.00 | 46 | 1015.5 |
| 20260504175918 | 77 | 127 | 10.4 | 14.8 | 0.00 | 0.00 | 0.00 | 44 | 1015.5 |
| 20260504175414 | 77 | 130 | 6.1 | 7.8 | 0.00 | 0.00 | 0.00 | 46 | 1015.7 |
| 20260504174912 | 76 | 253 | 4.3 | 12.2 | 0.00 | 0.00 | 0.00 | 45 | 1015.9 |
| 20260504174410 | 76 | 209 | 7.8 | 14.8 | 0.00 | 0.00 | 0.00 | 44 | 1015.9 |
| 20260504173907 | 77 | 182 | 5.2 | 13.0 | 0.00 | 0.00 | 0.00 | 44 | 1016.0 |
| 20260504173403 | 77 | 205 | 7.8 | 10.4 | 0.00 | 0.00 | 0.00 | 44 | 1016.0 |
| 20260504172900 | 77 | 233 | 5.2 | 6.1 | 0.00 | 0.00 | 0.00 | 45 | 1015.9 |
| 20260504172357 | 76 | 257 | 3.5 | 13.0 | 0.00 | 0.00 | 0.00 | 45 | 1016.0 |
| 20260504171852 | 76 | 190 | 5.2 | 12.2 | 0.00 | 0.00 | 0.00 | 44 | 1016.1 |
| 20260504171350 | 76 | 238 | 4.3 | 13.0 | 0.00 | 0.00 | 0.00 | 44 | 1016.1 |
| 20260504170847 | 75 | 168 | 3.5 | 15.6 | 0.00 | 0.00 | 0.00 | 44 | 1016.2 |
| 20260504170344 | 75 | 159 | 6.1 | 13.0 | 0.00 | 0.00 | 0.00 | 45 | 1016.0 |
| 20260504160302 | 73 | 170 | 5.2 | 12.2 | 0.00 | 0.00 | 0.00 | 51 | 1016.8 |
| 20260504150727 | 71 | 245 | 2.6 | 8.7 | 0.00 | 0.00 | 0.00 | 56 | 1016.7 |
| 20260504150224 | 71 | 177 | 6.1 | 8.7 | 0.00 | 0.00 | 0.00 | 56 | 1017.1 |
| 20260504141154 | 66 | 170 | 3.5 | 7.0 | 0.00 | 0.00 | 0.00 | 67 | 1017.3 |
| 20260504140650 | 65 | 209 | 3.5 | 6.1 | 0.00 | 0.00 | 0.00 | 68 | 1017.2 |
| 20260504140146 | 65 | 216 | 5.2 | 9.6 | 0.00 | 0.00 | 0.00 | 69 | 1017.4 |
| 20260504130614 | 61 | 169 | 4.3 | 8.7 | 0.00 | 0.00 | 0.00 | 75 | 1017.1 |
| 20260504130111 | 61 | 139 | 3.5 | 6.1 | 0.00 | 0.00 | 0.00 | 76 | 1017.1 |